Fram — LADA7 — position and weather

sailwx.info

Track history (hours):
 
Tides and Currents Weather Stations Pressure Air Temp Water Temp Dewpoint Dewpoint Depression Visibility Wind Speed Wind Dir Waves Ship Positions

Fram

Last reported at 2019-Jul-21 09:16 UTC. Time now 2019-Jul-22 13:49 UTC.
Position N 66°29' W 053°52'.

Length 114 m; draft 5.1 m.

Type: Passenger vessel. MMSI: 258932000.

Date/timePositionNaut miles runAvg speedWind from/ knotsBaromVisibWave heightAir tempDewpointWater temp
2019-Jul-21 09:16N 66°29' W 053°52'311.4
2019-Jul-21 09:00N 66°26' W 053°57'1011.2
2019-Jul-21 08:07N 66°16' W 053°58'611.4
2019-Jul-21 07:36N 66°11' W 053°56'211.8
2019-Jul-21 07:24N 66°08' W 053°54'511.9
2019-Jul-21 06:57N 66°03' W 053°51'612.1
2019-Jul-21 06:29N 65°58' W 053°48'612.3
2019-Jul-21 06:00N 65°52' W 053°44'712.3
2019-Jul-21 05:26N 65°45' W 053°40'512.5
2019-Jul-21 05:00N 65°40' W 053°37'612.7
2019-Jul-21 04:30N 65°34' W 053°33'612.5
2019-Jul-21 04:00N 65°28' W 053°29'612.5
2019-Jul-21 03:30N 65°22' W 053°25'712.4
2019-Jul-21 02:56N 65°15' W 053°20'512.3
2019-Jul-21 02:30N 65°10' W 053°16'612.4
2019-Jul-21 02:00N 65°04' W 053°12'713.6
2019-Jul-21 01:30N 64°58' W 053°07'714.0
2019-Jul-21 01:00N 64°51' W 053°02'714.0
2019-Jul-21 00:30N 64°44' W 052°58'714.4
2019-Jul-21 00:00N 64°37' W 052°52'714.5
2019-Jul-20 23:30N 64°31' W 052°46'714.4
2019-Jul-20 23:00N 64°24' W 052°40'714.5
2019-Jul-20 22:30N 64°17' W 052°35'714.6
2019-Jul-20 22:00N 64°10' W 052°29'713.8
2019-Jul-20 21:30N 64°05' W 052°18'611.5
2019-Jul-20 21:00N 64°05' W 052°05'612.5
2019-Jul-20 20:30N 64°08' W 051°52'5 0.8
2019-Jul-20 14:36N 64°10' W 051°43'0 0.0
2019-Jul-20 14:30N 64°10' W 051°43'0 0.0
2019-Jul-20 14:00N 64°10' W 051°43'0 0.0
2019-Jul-20 13:30N 64°10' W 051°43'0 0.0
2019-Jul-20 13:00N 64°10' W 051°43'0 0.0
2019-Jul-20 12:30N 64°10' W 051°43'0 0.0
2019-Jul-20 12:00N 64°10' W 051°43'0 0.0
2019-Jul-20 11:30N 64°10' W 051°43'0 0.0
2019-Jul-20 11:00N 64°10' W 051°43'1 2.0
2019-Jul-20 10:30N 64°09' W 051°45'5 9.3
2019-Jul-20 10:01N 64°07' W 051°54'5 9.8
2019-Jul-20 09:30N 64°05' W 052°04'510.6
2019-Jul-20 09:00N 64°02' W 052°15'510.0
2019-Jul-20 08:30N 63°57' W 052°16'510.8
2019-Jul-20 08:00N 63°53' W 052°11'510.5
2019-Jul-20 07:30N 63°48' W 052°05'510.3
2019-Jul-20 07:00N 63°43' W 052°00'510.4
2019-Jul-20 06:30N 63°39' W 051°55'610.5
2019-Jul-20 05:59N 63°34' W 051°49'  
Track history (hours):
 
Tides and Currents Weather Stations Pressure Air Temp Water Temp Dewpoint Dewpoint Depression Visibility Wind Speed Wind Dir Waves Ship Positions

Fram

Last reported at 2019-Jul-21 09:16 UTC. Time now 2019-Jul-22 13:49 UTC.
Position N 66°29' W 053°52'.

Length 114 m; draft 5.1 m.

Type: Passenger vessel. MMSI: 258932000.

Date/timePositionNaut miles runAvg speedWind from/ knotsBaromVisibWave heightAir tempDewpointWater temp
2019-Jul-21 09:16N 66°29' W 053°52'311.4
2019-Jul-21 09:00N 66°26' W 053°57'1011.2
2019-Jul-21 08:07N 66°16' W 053°58'611.4
2019-Jul-21 07:36N 66°11' W 053°56'211.8
2019-Jul-21 07:24N 66°08' W 053°54'511.9
2019-Jul-21 06:57N 66°03' W 053°51'612.1
2019-Jul-21 06:29N 65°58' W 053°48'612.3
2019-Jul-21 06:00N 65°52' W 053°44'712.3
2019-Jul-21 05:26N 65°45' W 053°40'512.5
2019-Jul-21 05:00N 65°40' W 053°37'612.7
2019-Jul-21 04:30N 65°34' W 053°33'612.5
2019-Jul-21 04:00N 65°28' W 053°29'612.5
2019-Jul-21 03:30N 65°22' W 053°25'712.4
2019-Jul-21 02:56N 65°15' W 053°20'512.3
2019-Jul-21 02:30N 65°10' W 053°16'612.4
2019-Jul-21 02:00N 65°04' W 053°12'713.6
2019-Jul-21 01:30N 64°58' W 053°07'714.0
2019-Jul-21 01:00N 64°51' W 053°02'714.0
2019-Jul-21 00:30N 64°44' W 052°58'714.4
2019-Jul-21 00:00N 64°37' W 052°52'714.5
2019-Jul-20 23:30N 64°31' W 052°46'714.4
2019-Jul-20 23:00N 64°24' W 052°40'714.5
2019-Jul-20 22:30N 64°17' W 052°35'714.6
2019-Jul-20 22:00N 64°10' W 052°29'713.8
2019-Jul-20 21:30N 64°05' W 052°18'611.5
2019-Jul-20 21:00N 64°05' W 052°05'612.5
2019-Jul-20 20:30N 64°08' W 051°52'5 0.8
2019-Jul-20 14:36N 64°10' W 051°43'0 0.0
2019-Jul-20 14:30N 64°10' W 051°43'0 0.0
2019-Jul-20 14:00N 64°10' W 051°43'0 0.0
2019-Jul-20 13:30N 64°10' W 051°43'0 0.0
2019-Jul-20 13:00N 64°10' W 051°43'0 0.0
2019-Jul-20 12:30N 64°10' W 051°43'0 0.0
2019-Jul-20 12:00N 64°10' W 051°43'0 0.0
2019-Jul-20 11:30N 64°10' W 051°43'0 0.0
2019-Jul-20 11:00N 64°10' W 051°43'1 2.0
2019-Jul-20 10:30N 64°09' W 051°45'5 9.3
2019-Jul-20 10:01N 64°07' W 051°54'5 9.8
2019-Jul-20 09:30N 64°05' W 052°04'510.6
2019-Jul-20 09:00N 64°02' W 052°15'510.0
2019-Jul-20 08:30N 63°57' W 052°16'510.8
2019-Jul-20 08:00N 63°53' W 052°11'510.5
2019-Jul-20 07:30N 63°48' W 052°05'510.3
2019-Jul-20 07:00N 63°43' W 052°00'510.4
2019-Jul-20 06:30N 63°39' W 051°55'610.5
2019-Jul-20 05:59N 63°34' W 051°49'  

Dump ship's entire track history